#timestamp,LO_Frequency,Hit,StdDev 
1507932015.5,286046996.6,P
1507932035.3,286046999.2,N
1507932055.1,286046999.4,N
1507932075.9,286046995.5,Y
1507932095.7,286046996.8,P
1507932115.5,286046998.5,N
1507932135.4,286046998.9,N
1507932155.2,286046996.9,Y
1507932175.0,286046999.6,P
1507932175.9,286046999.6,N
1507932195.8,286046995.1,P
1507932215.6,286046998.0,N
1507932235.4,286047000.7,N
1507932255.2,286047001.6,N
1507932275.1,286047004.1,N
1507932276.0,286047004.1,N
1507932295.8,286047003.8,N
1507932315.6,286047004.4,N
1507932335.5,286047004.9,N
1507932355.3,286047008.8,N
1507932375.1,286047009.1,N
1507932395.9,286047010.3,N
1507932415.7,286047012.3,N
1507932435.5,286047011.5,N
1507932455.4,286047011.6,N
1507932475.2,286047011.0,N
1507932495.0,286047009.5,N
1507932495.9,286047009.5,N
1507932515.8,286047009.4,N
1507932535.6,286047010.5,N
1507932555.4,286047007.6,N
1507932575.2,286047002.9,N
1507932595.1,286047001.5,N
1507932596.0,286047001.5,N
1507932615.8,286047004.6,N
1507932635.6,286047012.1,N
1507932655.5,286047008.2,N
1507932675.3,286047012.6,N
1507932695.1,286047015.8,Y
1507932715.9,286047011.9,P
1507932735.7,286047010.1,P
1507932755.5,286047011.3,P
1507932775.4,286047013.4,Y
1507932795.2,286047009.1,P
1507932815.0,286047007.9,P
1507932815.9,286047007.9,P
1507932835.8,286047010.2,Y
1507932855.6,286046998.7,P
1507932875.4,286047001.3,N
1507932895.3,286046998.7,N
1507932915.1,286047001.3,N
1507932935.8,286046998.4,N
1507932955.7,286046997.4,N
1507932975.5,286046996.6,N
1507932995.3,286046999.4,N
1507933015.2,286046999.0,N
1507933035.9,286047001.3,N
1507933055.7,286046999.7,N
1507933075.6,286047001.0,N
1507933095.4,286047000.2,N
1507933115.2,286046999.2,N
1507933135.0,286046999.0,N
1507933135.9,286046999.0,N
1507933155.8,286046999.6,N
1507933175.6,286046997.4,N
1507933195.4,286046996.9,N
1507933215.3,286046999.5,N
1507933235.1,286046997.1,N
1507933236.0,286046997.1,N
1507933255.8,286046995.3,N
1507933275.7,286046996.6,N
1507933295.5,286046997.0,N
1507933315.3,286046998.6,N
1507933335.2,286046997.6,N
1507933355.9,286046998.0,N
1507933375.7,286046992.5,Y
1507933395.6,286046996.6,P
1507933415.4,286046997.6,N
1507933435.2,286046995.2,P
1507933455.1,286046996.0,N
1507933456.0,286046996.0,Y
1507933475.8,286046999.3,P
1507933495.6,286046998.6,N
1507933515.5,286047001.1,N
1507933535.3,286046995.4,Y
1507933555.1,286046995.7,P
1507933575.9,286046997.2,N
1507933595.7,286046994.1,P
1507933615.5,286046994.8,N
1507933635.4,286046990.4,Y
1507933655.2,286046993.9,P
1507933675.0,286046992.0,P
1507933675.9,286046992.0,P
1507933695.8,286046993.1,Y
1507933715.6,286046999.4,P
1507933735.4,286046999.6,N
1507933755.3,286046993.8,N
1507933775.1,286046993.9,N
1507933776.0,286046993.9,N
1507933795.8,286046997.6,N
1507933815.7,286046997.1,N
1507933835.5,286046995.6,N
1507933855.3,286046995.2,N
1507933875.2,286046993.4,N
1507933895.9,286046993.4,N
1507933915.7,286046994.7,N
1507933935.6,286046993.5,Y
1507933955.4,286047000.6,P
1507933975.2,286047000.8,N
1507933995.0,286046996.8,N
1507933996.0,286046996.8,N
1507934015.8,286046997.6,N
1507934035.6,286046994.9,N
1507934055.4,286046999.4,N
1507934075.3,286047001.2,N
1507934095.1,286046998.7,N
1507934115.8,286046997.1,N
1507934135.7,286046998.2,N
1507934155.5,286047002.1,N
1507934175.3,286047001.4,N
1507934195.2,286047004.2,N
1507934215.9,286047003.4,N
1507934235.7,286047006.1,N
1507934255.6,286047008.1,N
1507934275.4,286047010.3,N
1507934295.2,286047010.1,N
1507934315.0,286047011.0,N
1507934315.9,286047011.0,N
1507934335.8,286047013.5,N
1507934355.6,286047015.2,N
1507934375.5,286047020.0,Y
1507934395.3,286047017.8,P
1507934415.1,286047020.0,N
1507934435.8,286047020.2,N
1507934455.7,286047021.5,Y
1507934475.5,286047002.2,P
1507934495.3,286047000.7,N
1507934515.2,286047004.0,N
1507934535.0,286047004.6,N
1507934535.9,286047004.6,N
1507934555.7,286047008.8,N
1507934575.6,286047009.4,N
1507934595.4,286047009.9,N
1507934615.2,286047013.4,Y
1507934635.1,286047008.0,P
1507934636.0,286047008.0,P
1507934655.8,286047006.6,P
1507934675.6,286047005.5,Y
1507934695.5,286046996.8,P
1507934715.3,286046997.1,N
1507934735.1,286046997.0,N
1507934755.9,286047000.7,N
1507934775.7,286047002.2,N
1507934795.5,286047000.6,N
1507934815.4,286046997.3,N
1507934835.2,286046996.1,N
1507934855.0,286046996.2,N
1507934855.9,286046996.2,N
1507934875.8,286046996.7,N
1507934895.6,286046994.8,N
1507934915.4,286046991.8,N
1507934935.3,286046990.4,N
1507934955.1,286046988.5,N
1507934956.0,286046988.5,N
1507934975.8,286046987.3,N
1507934995.6,286046991.6,N
1507935015.5,286046989.1,N
1507935035.3,286046987.3,N
1507935055.1,286046987.8,N
1507935075.9,286046990.0,N
1507935095.7,286046987.9,N
1507935115.5,286046988.3,N
1507935135.4,286046988.2,N
1507935155.2,286046986.2,N
1507935175.0,286046985.4,N
1507935175.9,286046985.4,N
1507935195.8,286046987.0,N
1507935215.6,286046989.8,N
1507935235.4,286046985.4,N
1507935255.3,286046986.7,N
1507935275.1,286046988.0,N
1507935276.0,286046988.0,N
1507935295.8,286046987.8,N
1507935315.7,286046982.7,Y
1507935335.5,286046990.1,P
1507935355.3,286046990.3,P
1507935375.2,286046991.4,P
1507935395.9,286046990.2,Y
1507935415.7,286047003.9,P
1507935435.6,286047001.8,N
1507935455.4,286047000.0,N
1507935475.2,286047001.0,N
1507935495.1,286047002.6,N
1507935496.0,286047002.6,N
1507935515.8,286047003.5,N
1507935535.6,286046999.8,N
1507935555.5,286046998.8,N
1507935575.3,286046997.7,N
1507935595.1,286046996.9,N
